Waarnemingen

Advertentie
Mijn weer
Auch, Frankrijk (7622): temperatuur & dauwpunt: 15.03.2019 13:00:00 - 21.03.2019 13:00:00 (CET)Auch, Frankrijk (7622): temperatuur 5cm: 15.03.2019 13:00:00 - 21.03.2019 13:00:00 (CET)Auch, Frankrijk (7622): temperatuur -20cm & temperatuur -100cm: 15.03.2019 13:00:00 - 21.03.2019 13:00:00 (CET)Auch, Frankrijk (7622): windsnelheid & windstoten: 15.03.2019 13:00:00 - 21.03.2019 13:00:00 (CET)Auch, Frankrijk (7622): windrichting: 15.03.2019 13:00:00 - 21.03.2019 13:00:00 (CET)Auch, Frankrijk (7622): luchtdruk: 15.03.2019 13:00:00 - 21.03.2019 13:00:00 (CET)Auch, Frankrijk (7622): zicht: 15.03.2019 13:00:00 - 21.03.2019 13:00:00 (CET)Auch, Frankrijk (7622): Zonneschijnduur: 15.03.2019 13:00:00 - 21.03.2019 13:00:00 (CET)Auch, Frankrijk (7622): neerslag: 15.03.2019 13:00:00 - 21.03.2019 13:00:00 (CET)
Datum & Tijd tt [°C] td [°C] tt 5cm [°C] tt -20cm [°C] tt -100cm [°C] ff [km/u] ff [kn] fx [km/u] fx [kn] dd ppp [hPa] vv [km] sd [min] rr [mm]
21.03.2019 13:00:00 14,3 0,9 20,3 10,0 11,5 9 5 14 7 N 1029,7 19 60 0,0
21.03.2019 12:00:00 13,7 2,0 19,5 9,9 11,4 4 2 9 5 NO 1030,0 20 60 0,0
21.03.2019 11:00:00 12,6 2,7 16,4 9,9 11,5 2 1 8 4 O 1030,4 20 60 0,0
21.03.2019 10:00:00 9,0 2,8 10,1 10,0 11,5 5 3 8 4 Z 1030,7 20 60 0,0
21.03.2019 09:00:00 4,2 1,4 2,3 10,1 11,5 7 4 14 8 Z 1031,3 20 60 0,0
21.03.2019 08:00:00 0,2 -0,9 -2,3 10,2 11,5 13 7 14 8 Z 1031,4 20 30 0,0
21.03.2019 07:00:00 -0,9 -1,9 -2,9 10,4 11,5 7 4 10 5 ZZW 1031,1 20 0 0,0
21.03.2019 06:00:00 -0,9 -1,7 -4,4 10,5 11,5 8 4 10 5 Z 1030,8 20 0 0,0
21.03.2019 05:00:00 -0,1 -1,2 -3,5 10,6 11,5 4 2 11 6 ZW 1030,6 20 0 0,0
21.03.2019 04:00:00 -0,6 -1,7 -3,5 10,7 11,5 5 3 8 4 ZZW 1030,4 20 0 0,0
21.03.2019 03:00:00 0,6 -1,2 -1,4 10,9 11,5 6 3 13 7 ZZW 1030,8 20 0 0,0
21.03.2019 02:00:00 1,7 -0,4 -0,4 11,0 11,5 7 4 13 7 ZZW 1031,3 20 0 0,0
21.03.2019 01:00:00 2,4 0,0 0,6 11,0 11,5 10 5 13 7 Z 1031,4 20 0 0,0
21.03.2019 00:00:00 3,1 0,3 1,4 11,1 11,5 11 6 14 8 Z 1031,7 20 0 0,0
20.03.2019 23:00:00 3,9 0,6 1,9 11,2 11,5 12 6 16 8 Z 1031,8 20 0 0,0
20.03.2019 22:00:00 4,6 0,9 -0,5 11,3 11,5 10 6 14 8 ZZW 1031,8 20 0 0,0
20.03.2019 21:00:00 4,0 0,5 -0,7 11,3 11,5 5 3 9 5 Z 1031,8 20 0 0,0
20.03.2019 20:00:00 7,5 1,1 0,4 11,2 11,5 3 2 6 4 Z 1031,3 20 0 0,0
20.03.2019 19:00:00 12,3 -0,9 7,6 11,1 11,5 5 3 11 6 NNW 1030,5 20 47 0,0
20.03.2019 18:00:00 14,8 -0,5 18,2 10,9 11,5 3 2 17 9 NNW 1030,2 20 60 0,0
20.03.2019 17:00:00 14,5 -1,2 19,0 10,7 11,5 10 5 23 12 N 1030,2 20 60 0,0
20.03.2019 16:00:00 13,9 -0,2 15,5 10,5 11,5 9 5 21 11 NNW 1030,2 20 55 0,0
20.03.2019 15:00:00 14,1 -0,8 19,2 10,3 11,5 5 3 19 11 NNW 1030,7 20 60 0,0
20.03.2019 14:00:00 13,1 0,8 18,3 10,1 11,5 8 4 22 12 NW 1031,4 20 60 0,0
20.03.2019 13:00:00 12,5 0,9 17,9 10,0 11,5 8 4 23 12 NW 1032,0 20 60 0,0
20.03.2019 12:00:00 12,0 1,6 17,4 9,9 11,5 6 3 15 8 N 1032,4 20 60 0,0
20.03.2019 11:00:00 10,3 3,1 15,9 9,9 11,5 6 3 14 8 NNW 1032,9 20 60 0,0
20.03.2019 10:00:00 8,8 3,4 10,8 10,0 11,5 2 1 9 5 N 1032,9 20 60 0,0
20.03.2019 09:00:00 4,4 3,4 2,2 10,2 11,5 4 2 9 5 Z 1033,1 20 60 0,0
20.03.2019 08:00:00 -0,2 -0,5 -4,7 10,3 11,5 7 4 10 5 Z 1032,7 19 30 0,0
20.03.2019 07:00:00 -1,4 -1,8 -4,9 10,5 11,5 5 3 10 5 ZZW 1032,4 20 0 0,0
20.03.2019 06:00:00 -0,7 -1,0 -4,7 10,6 11,5 7 4 10 5 ZZW 1032,1 20 0 0,0
20.03.2019 05:00:00 -1,4 -2,0 -4,5 10,7 11,5 5 3 8 4 ZZW 1032,1 20 0 0,0
20.03.2019 04:00:00 -0,2 -0,6 -3,6 10,8 11,5 0 0 9 5 N 1031,9 19 0 0,0
20.03.2019 03:00:00 0,3 -0,4 -3,4 10,9 11,5 0 0 5 3 N 1032,0 12 0 0,0
20.03.2019 02:00:00 1,6 0,7 -1,7 11,1 11,5 4 2 10 6 ZZW 1032,0 20 0 0,0
20.03.2019 01:00:00 2,7 1,8 -0,2 11,2 11,5 9 5 10 6 Z 1032,0 20 0 0,0
20.03.2019 00:00:00 3,7 1,6 0,3 11,3 11,5 9 5 13 7 Z 1031,9 20 0 0,0
19.03.2019 23:00:00 4,4 2,7 -0,6 11,4 11,5 0 0 5 3 N 1031,4 20 0 0,0
19.03.2019 22:00:00 4,3 2,8 -0,2 11,4 11,5 0 0 7 4 N 1030,9 20 0 0,0
19.03.2019 21:00:00 6,9 3,7 1,3 11,4 11,5 3 2 6 3 ZZW 1030,3 20 0 0,0
19.03.2019 20:00:00 8,5 3,9 5,1 11,3 11,5 2 1 4 2 ZW 1030,0 20 0 0,0
19.03.2019 19:00:00 10,0 3,0 8,4 11,3 11,5 3 2 13 7 WNW 1029,4 20 7 0,0
19.03.2019 18:00:00 10,4 3,9 10,6 11,2 11,5 8 4 24 13 NNW 1028,9 20 4 0,0
19.03.2019 17:00:00 11,0 3,5 10,3 11,1 11,5 14 8 28 15 NW 1028,6 20 34 0,0
19.03.2019 16:00:00 11,0 3,8 11,9 11,0 11,5 18 10 30 16 NNW 1028,2 20 48 0,0
19.03.2019 15:00:00 10,5 4,0 12,2 10,9 11,5 13 7 24 13 WNW 1027,9 20 6 0,0
19.03.2019 14:00:00 9,7 4,7 10,1 10,9 11,5 16 9 23 13 NNW 1028,3 20 0 0,0
19.03.2019 13:00:00 8,8 4,8 10,0 10,9 11,5 11 6 21 11 NW 1029,1 20 0 0,0
19.03.2019 12:00:00 9,0 4,8 10,0 10,8 11,5 9 5 15 8 NW 1028,7 20 0 0,0
19.03.2019 11:00:00 8,6 5,2 9,7 10,8 11,5 9 5 16 9 NW 1028,6 20 0 0,0
19.03.2019 10:00:00 7,7 6,0 8,3 10,9 11,5 10 6 16 9 NNW 1028,4 18 0 0,0
19.03.2019 09:00:00 7,3 5,6 6,6 10,9 11,5 9 5 14 7 NNW 1027,9 20 0 0,0
19.03.2019 08:00:00 6,5 5,6 5,9 11,0 11,5 6 3 11 6 NW 1027,7 20 0 0,0
19.03.2019 07:00:00 6,2 5,3 5,7 11,0 11,4 2 1 8 4 W 1027,1 20 0 0,0
19.03.2019 06:00:00 6,4 5,5 6,0 11,1 11,5 6 3 11 6 W 1026,9 12 0 0,0
19.03.2019 05:00:00 6,3 5,6 5,6 11,1 11,5 4 2 8 4 W 1026,7 20 0 0,2
19.03.2019 04:00:00 6,2 5,5 5,5 11,2 11,5 3 2 10 5 WZW 1026,6 20 0 0,4
19.03.2019 03:00:00 6,0 5,1 5,4 11,3 11,5 3 2 9 5 ZW 1026,9 18 0 0,8
19.03.2019 02:00:00 6,2 4,7 5,4 11,3 11,5 3 1 17 9 W 1027,4 11 0 1,2
19.03.2019 01:00:00 6,6 4,6 5,6 11,4 11,5 5 3 14 8 WNW 1027,7 16 0 1,4
19.03.2019 00:00:00 7,9 3,7 6,1 11,4 11,5 10 6 29 15 W 1027,6 18 0 0,0
18.03.2019 23:00:00 8,6 4,0 7,9 11,4 11,5 8 4 19 10 W 1027,6 20 0 0,0
18.03.2019 22:00:00 9,0 3,6 8,1 11,5 11,5 9 5 23 12 WNW 1027,7 20 0 0,0
18.03.2019 21:00:00 9,7 2,5 7,9 11,5 11,5 11 6 24 13 WNW 1027,4 20 0 0,0
18.03.2019 20:00:00 9,4 4,4 7,9 11,4 11,5 3 2 10 5 WZW 1027,0 20 0 0,0
18.03.2019 19:00:00 9,4 4,4 8,7 11,4 11,5 6 3 25 13 NW 1026,9 20 0 0,0
18.03.2019 18:00:00 10,1 4,2 9,9 11,2 11,5 21 11 35 19 NNW 1026,3 20 24 0,0
18.03.2019 17:00:00 12,4 2,3 10,6 11,1 11,4 8 4 29 16 NW 1026,0 20 7 0,0
18.03.2019 16:00:00 12,8 1,8 13,4 11,0 11,5 13 7 30 16 W 1026,2 20 37 0,0
18.03.2019 15:00:00 12,3 2,4 13,5 10,8 11,5 11 6 27 15 W 1026,5 20 14 0,0
18.03.2019 14:00:00 12,5 1,5 12,2 10,7 11,4 10 6 24 13 WNW 1027,1 20 31 0,0
18.03.2019 13:00:00 11,2 2,0 12,1 10,6 11,4 14 8 29 16 NW 1028,0 20 40 0,0
18.03.2019 12:00:00 11,5 3,0 10,8 10,5 11,4 15 8 26 14 NW 1028,3 20 32 0,0
18.03.2019 11:00:00 9,8 3,5 11,7 10,5 11,4 9 5 25 13 WNW 1028,6 20 35 0,0
18.03.2019 10:00:00 9,3 4,7 9,8 10,6 11,4 12 7 21 11 W 1028,1 19 56 0,0
18.03.2019 09:00:00 7,6 4,4 5,1 10,7 11,4 12 7 19 10 W 1027,7 20 52 0,0
18.03.2019 08:00:00 4,5 3,3 0,2 10,8 11,4 3 2 9 5 WZW 1027,5 20 3 0,0
18.03.2019 07:00:00 4,8 3,1 2,2 10,9 11,4 6 3 10 5 ZW 1027,1 20 0 0,0
18.03.2019 06:00:00 4,8 3,1 2,4 11,0 11,4 6 3 14 8 WZW 1026,5 20 0 0,0
18.03.2019 05:00:00 4,5 3,2 1,0 11,1 11,4 6 3 13 7 WZW 1026,1 20 0 0,0
18.03.2019 04:00:00 4,8 3,3 2,9 11,2 11,4 9 5 13 7 ZZW 1025,7 20 0 0,0
18.03.2019 03:00:00 5,7 3,0 4,1 11,3 11,4 5 3 17 9 WZW 1025,7 20 0 0,0
18.03.2019 02:00:00 6,2 3,0 3,7 11,4 11,4 9 5 19 11 WZW 1026,0 20 0 0,0
18.03.2019 01:00:00 4,7 2,9 1,5 11,5 11,4 7 4 16 8 ZZW 1026,4 20 0 0,0
18.03.2019 00:00:00 4,4 1,8 1,5 11,6 11,4 10 5 14 8 Z 1026,5 20 0 0,0
17.03.2019 23:00:00 6,6 2,7 4,2 11,7 11,4 7 4 16 9 WZW 1026,1 20 0 0,0
17.03.2019 22:00:00 6,8 2,3 4,7 11,8 11,4 6 3 16 9 W 1025,6 20 0 0,0
17.03.2019 21:00:00 7,9 2,1 5,9 11,8 11,4 8 5 24 13 W 1024,8 20 0 0,0
17.03.2019 20:00:00 8,8 1,7 6,8 11,9 11,4 10 5 34 18 WNW 1024,1 20 0 0,0
17.03.2019 19:00:00 10,1 0,9 8,4 11,8 11,4 12 7 42 23 W 1023,0 20 29 0,0
17.03.2019 18:00:00 11,7 1,3 10,9 11,8 11,4 21 11 34 19 WNW 1022,2 20 39 0,0
17.03.2019 17:00:00 12,2 4,2 11,4 11,7 11,4 16 9 35 19 W 1021,6 20 15 0,0
17.03.2019 16:00:00 11,0 5,1 11,8 11,7 11,4 18 10 40 22 W 1021,5 20 29 0,2
17.03.2019 15:00:00 11,1 7,8 9,6 11,6 11,4 15 8 34 18 WZW 1021,1 20 1 0,0
17.03.2019 14:00:00 9,6 7,7 8,9 11,5 11,3 14 8 43 23 NW 1021,1 20 0 0,4
17.03.2019 13:00:00 10,8 7,8 9,7 11,5 11,4 24 13 43 23 W 1020,2 7 1 0,2
17.03.2019 12:00:00 14,2 7,9 15,0 11,4 11,4 21 11 44 24 W 1019,0 20 9 0,0
17.03.2019 11:00:00 14,1 7,8 14,6 11,4 11,4 19 11 37 20 W 1018,7 20 29 0,0
17.03.2019 10:00:00 12,6 7,7 11,9 11,4 11,4 13 7 24 13 ZW 1018,8 20 1 0,0
17.03.2019 09:00:00 11,6 8,1 11,2 11,5 11,3 6 4 18 10 WZW 1018,7 20 40 0,0
17.03.2019 08:00:00 10,1 8,0 8,5 11,5 11,4 6 3 12 7 Z 1017,7 15 7 0,0
17.03.2019 07:00:00 10,4 8,2 9,8 11,5 11,3 6 3 13 7 ZW 1017,3 18 0 0,0
17.03.2019 06:00:00 10,3 7,9 9,7 11,6 11,3 5 3 16 9 W 1016,8 19 0 0,0
17.03.2019 05:00:00 10,1 7,5 9,4 11,7 11,3 6 3 20 11 NW 1016,0 20 0 0,0
17.03.2019 04:00:00 9,9 7,5 8,2 11,8 11,3 13 7 23 13 WNW 1015,6 20 0 0,0
17.03.2019 03:00:00 9,7 6,6 1,9 11,9 11,3 8 4 29 15 WZW 1015,2 20 0 0,0
17.03.2019 02:00:00 4,6 3,6 1,3 12,1 11,3 5 3 11 6 Z 1014,7 20 0 0,0
17.03.2019 01:00:00 5,5 4,6 1,2 12,2 11,3 4 2 9 5 ZZO 1014,0 20 0 0,0
17.03.2019 00:00:00 5,7 4,2 1,8 12,3 11,3 2 1 3 2 ZZW 1014,3 20 0 0,0
16.03.2019 23:00:00 7,6 5,6 1,8 12,4 11,3 2 1 13 7 W 1014,6 15 0 0,0
16.03.2019 22:00:00 6,8 4,8 2,2 12,4 11,3 2 1 4 2 Z 1015,1 20 0 0,0
16.03.2019 21:00:00 8,4 5,1 3,3 12,4 11,3 3 2 5 3 ZZW 1015,3 20 0 0,0
16.03.2019 20:00:00 10,9 6,2 4,5 12,3 11,3 0 0 4 2 N 1015,0 20 0 0,0
16.03.2019 19:00:00 17,0 6,8 11,6 12,2 11,3 0 0 10 5 N 1014,7 20 43 0,0
16.03.2019 18:00:00 19,5 4,8 19,9 12,0 11,3 5 3 15 8 ZO 1015,0 20 60 0,0
16.03.2019 17:00:00 20,4 5,2 23,3 11,8 11,3 9 5 15 8 OZO 1015,6 20 60 0,0
16.03.2019 16:00:00 20,2 5,8 23,5 11,5 11,3 6 3 13 7 OZO 1016,6 20 60 0,0
16.03.2019 15:00:00 18,9 7,0 23,6 11,3 11,3 9 5 16 9 NO 1017,6 20 60 0,0
16.03.2019 14:00:00 18,1 7,2 23,5 11,1 11,3 5 3 13 7 O 1018,9 20 60 0,0
16.03.2019 13:00:00 16,6 6,4 20,6 11,0 11,3 4 2 16 9 OZO 1020,3 20 60 0,0
16.03.2019 12:00:00 14,5 6,3 18,7 10,9 11,3 10 5 19 11 OZO 1021,3 20 60 0,0
16.03.2019 11:00:00 13,2 6,1 16,9 10,9 11,3 10 5 18 10 O 1022,1 20 60 0,0
16.03.2019 10:00:00 11,8 5,6 15,4 10,9 11,3 9 5 16 9 O 1022,9 20 60 0,0
16.03.2019 09:00:00 9,4 6,7 7,6 11,0 11,3 0 0 2 1 N 1023,6 20 60 0,0
16.03.2019 08:00:00 4,4 3,7 -0,2 11,1 11,3 0 0 3 2 N 1024,5 20 19 0,0
16.03.2019 07:00:00 5,4 3,4 0,3 11,2 11,3 0 0 5 3 N 1024,7 20 0 0,0
16.03.2019 06:00:00 7,6 5,1 5,9 11,2 11,3 2 1 4 2 O 1025,3 20 0 0,0
16.03.2019 05:00:00 7,9 5,0 5,9 11,3 11,3 0 0 4 2 N 1025,5 20 0 0,0
16.03.2019 04:00:00 8,6 5,0 6,8 11,3 11,3 0 0 10 5 N 1025,6 20 0 0,0
16.03.2019 03:00:00 9,6 4,4 8,0 11,3 11,3 5 3 10 5 ZW 1026,5 20 0 0,0
16.03.2019 02:00:00 9,9 5,9 8,5 11,3 11,3 2 1 17 9 W 1027,2 20 0 0,0
16.03.2019 01:00:00 9,9 6,2 8,9 11,4 11,3 0 0 6 4 N 1027,7 20 0 0,0
16.03.2019 00:00:00 10,1 6,1 9,0 11,4 11,3 2 1 7 4 ZW 1028,3 20 0 0,0
15.03.2019 23:00:00 10,5 5,9 9,7 11,4 11,3 3 1 13 7 W 1028,8 20 0 0,0
15.03.2019 22:00:00 10,8 5,7 9,9 11,4 11,3 6 3 15 8 W 1028,8 20 0 0,0
15.03.2019 21:00:00 11,0 6,9 10,3 11,4 11,3 4 2 18 10 W 1028,9 20 0 0,0
15.03.2019 20:00:00 11,0 7,3 10,4 11,4 11,3 4 2 16 9 WZW 1028,7 20 0 0,0
15.03.2019 19:00:00 11,3 8,2 10,9 11,3 11,3 8 5 22 12 W 1028,4 20 0 0,0
15.03.2019 18:00:00 11,5 8,4 11,0 11,3 11,3 10 5 26 14 W 1027,9 20 0 0,0
15.03.2019 17:00:00 11,5 8,5 10,9 11,2 11,3 16 9 34 19 WZW 1027,8 19 2 0,0
15.03.2019 16:00:00 12,0 9,6 11,1 11,1 11,3 16 9 34 18 W 1027,8 19 11 0,0
15.03.2019 15:00:00 12,8 8,3 12,6 11,0 11,3 11 6 31 17 W 1027,8 20 0 0,0
15.03.2019 14:00:00 13,2 9,3 11,5 10,9 11,3 10 5 35 19 W 1027,9 20 8 0,0
15.03.2019 13:00:00 12,8 8,1 13,4 10,8 11,3 18 10 39 21 W 1028,4 20 12 0,0

tt = temperatuur
td = dauwpunt
tt 5cm = temperatuur 5cm
tt -20cm = temperatuur -20cm
tt -100cm = temperatuur -100cm
ff = windsnelheid
fx = windstoten
dd = windrichting
ppp = luchtdruk
vv = zicht
sd = Zonneschijnduur
rr = neerslag

Weerstations in de omgeving